RH
27 27 28 27 24 18 21 22 25 29 34 56 69 71 68 75 78 77 77 75 72 70 77 77 78 84 81 88 84 86 89 89 85 86 85 83 81 88 85 71 66 64 58 62
28 31 28 31 33 30 29 32 40 42 43 55 60 59 56 57 67 77 73 72 70 69 66 66 64 73 81 88 89 86 81 76 74 79 84 86 90 80 72 64 63 68 66 64
31 30 30 35 35 35 43 34 37 45 49 52 54 59 57 52 61 64 66 69 67 68 69 60 56 59 62 71 71 62 64 64 70 80 81 74 72 72 65 72 65 68 68 68
39 37 33 34 34 38 42 40 39 50 53 60 50 79 61 64 70 68 71 71 75 66 58 54 52 50 52 56 54 53 53 54 55 58 59 58 65 68 80 72 65 69 70 67
42 40 37 34 38 39 42 36 38 40 43 47 53 68 64 64 70 69 70 69 74 77 61 54 55 56 61 55 56 59 54 53 55 59 67 73 72 79 76 67 62 60 68 67
40 37 36 39 38 37 37 45 50 58 56 65 52 59 68 71 63 66 64 64 67 70 72 64 60 54 55 61 60 58 60 65 65 65 69 68 70 69 61 63 65 66 67 74
37 38 36 38 41 40 45 51 70 64 75 76 58 60 57 52 56 57 60 63 68 72 74 71 59 59 64 61 60 59 60 60 62 63 64 65 63 56 59 63 71 72 75 77
49 52 38 32 40 42 47 51 71 65 84 68 55 68 57 49 48 52 56 62 68 71 68 68 72 69 67 63 57 54 54 55 58 62 63 64 65 72 74 76 77 75 81 82
51 48 36 35 38 41 48 54 50 73 76 74 72 58 54 61 60 58 58 63 75 74 75 71 68 64 65 68 67 58 57 58 62 66 72 74 73 70 74 75 80 86 85 79
47 44 43 35 40 39 42 42 52 71 64 72 71 69 71 64 63 61 68 69 74 72 71 66 60 60 62 63 69 62 52 49 51 55 64 59 61 64 71 80 80 83 87 80
48 47 45 44 46 49 46 50 62 63 75 74 86 72 58 57 59 60 69 73 72 74 69 63 60 57 52 48 47 44 45 43 48 53 57 60 65 68 72 77 82 87 80 77
57 60 73 47 44 48 46 51 48 63 56 89 88 61 55 58 54 65 73 71 74 69 64 60 57 49 41 42 41 44 42 41 47 52 58 62 66 68 72 76 78 79 75 73
49 64 77 56 44 43 49 58 59 63 79 78 83 61 61 68 71 71 77 76 74 72 67 65 59 45 42 44 47 43 42 42 45 48 56 65 71 75 75 72 69 72 73 74
60 64 56 62 54 55 52 56 56 53 76 70 75 52 71 75 77 82 81 78 75 70 65 64 58 44 44 44 44 45 47 50 50 50 58 68 74 79 81 81 78 77 79 87
55 61 68 73 68 59 50 46 60 54 55 59 57 56 48 69 77 81 78 77 74 70 64 63 57 47 40 43 47 45 48 51 52 54 56 67 76 78 80 85 87 88 87 80
70 75 76 80 77 72 60 50 52 60 57 63 68 62 72 80 83 83 78 76 74 68 60 55 51 38 39 42 45 43 46 50 54 57 60 69 76 80 84 88 90 93 87 85
77 90 63 52 81 67 56 52 53 55 56 57 73 57 83 86 81 80 82 76 73 63 53 52 45 38 35 42 44 45 46 50 54 60 61 71 79 83 85 88 92 94 91 78
96 90 83 80 74 53 42 51 55 56 64 69 73 76 76 80 83 77 76 74 74 60 51 54 54 42 35 42 44 47 46 49 55 59 63 75 80 82 86 91 92 92 92 92
75 89 96 74 79 50 36 69 70 64 55 75 72 81 80 83 78 78 73 71 69 64 58 56 51 34 34 39 42 45 49 52 55 59 65 72 80 84 89 93 93 93 94 84
83 85 76 92 62 50 44 54 59 55 74 76 75 80 84 80 94 71 73 71 65 59 47 36 34 36 38 41 48 51 55 59 62 64 66 73 80 85 91 91 92 92 73 71
99 98 82 99 81 67 49 59 56 69 62 85 75 77 87 85 80 72 77 71 63 45 36 42 42 44 46 50 55 59 64 66 63 66 70 75 78 82 84 83 82 70 79 77
93 95 99 96 92 60 54 59 65 66 75 81 82 82 78 80 75 79 78 58 40 40 40 42 46 48 54 57 63 68 72 66 71 74 76 78 80 76 68 79 70 76 83 80
77 70 80 70 72 56 57 66 63 68 66 82 83 84 76 84 80 80 57 42 42 38 40 45 47 52 54 60 67 75 75 78 81 86 84 81 80 74 76 79 74 80 83 92
78 70 85 75 58 65 64 60 68 74 74 81 84 85 82 83 82 63 50 45 44 42 44 48 52 54 62 67 70 80 80 83 91 91 85 85 82 78 80 69 67 75 96 96
80 75 76 82 71 73 68 76 71 80 85 87 87 84 81 79 61 46 45 48 45 46 51 53 56 64 69 73 79 84 83 90 94 94 94 94 90 89 79 68 71 79 73 80
80 74 85 81 58 60 60 59 82 85 87 89 85 85 66 61 46 47 50 52 52 55 56 56 62 72 76 83 90 89 90 93 96 94 78 89 90 97 93 72 77 73 74 73
Wind_Speed
5 10 4 3 4 5 4 4 3 3 5 11 5 6 8 8 8 8 7 7 7 7 3 4 5 6 11 10 12 9 11 7 6 3 3 3 3 2 2 4 6 7 6 6
8 4 2 3 3 5 5 6 4 3 4 10 8 10 6 8 4 4 6 6 7 6 6 7 8 10 11 8 8 7 9 8 6 4 3 3 3 2 4 3 6 6 6 5
6 2 2 1 5 6 4 5 3 5 10 6 6 7 7 5 6 5 5 3 3 5 7 7 6 7 8 7 7 7 7 7 4 5 3 3 3 3 3 4 3 4 5 5
4 3 4 5 6 4 3 1 6 8 5 5 2 2 1 1 2 3 1 2 3 7 4 7 6 7 7 6 6 6 6 5 3 3 3 2 2 2 1 2 1 2 3 2
3 2 5 7 1 3 3 6 6 4 5 6 4 6 4 4 4 6 6 5 4 1 4 7 8 6 6 5 6 3 4 6 5 7 6 4 5 3 1 1 1 2 2 1
3 2 4 1 3 2 4 6 6 5 4 3 4 5 5 8 8 5 4 6 6 5 2 7 7 7 5 6 6 7 9 8 8 7 6 7 7 4 2 2 3 4 3 2
6 4 5 2 3 3 6 6 4 4 4 5 1 3 7 11 7 10 10 9 6 4 3 3 3 8 5 8 7 7 8 8 8 9 8 6 6 4 3 4 4 6 4 3
4 5 3 4 2 4 3 5 7 6 4 4 3 4 6 7 9 9 7 5 7 5 5 5 4 7 7 8 8 8 8 7 7 7 7 5 5 3 4 4 5 6 4 4
5 1 3 2 1 3 2 3 3 8 3 3 3 4 4 4 5 6 7 7 7 7 7 7 5 6 7 7 7 8 8 8 7 7 6 6 6 6 5 7 6 4 6 3
5 4 2 3 2 5 2 5 3 4 3 2 3 4 5 5 9 7 7 8 7 7 7 6 5 6 6 7 7 8 7 7 6 7 6 5 6 7 7 6 7 8 5 1
3 4 5 1 3 2 2 2 7 6 4 5 1 7 5 9 11 10 8 8 10 8 7 6 6 6 6 6 6 7 7 7 6 5 4 5 5 5 6 6 7 6 3 2
1 6 3 2 2 2 2 3 5 7 3 2 4 8 4 8 8 9 9 7 6 7 6 6 6 6 5 6 4 7 4 4 3 2 2 2 4 5 6 6 7 6 3 4
5 2 4 7 6 4 2 3 5 6 4 5 6 8 4 5 7 6 10 8 7 6 6 5 5 5 5 5 5 3 4 4 3 2 3 3 4 5 6 7 6 5 4 4
7 4 5 8 5 2 3 4 4 5 4 3 7 4 4 4 7 7 8 7 7 7 6 5 5 5 5 5 5 6 5 4 4 4 4 4 4 5 6 7 6 6 6 6
4 4 2 2 4 2 1 4 6 7 5 7 5 7 6 10 10 10 8 7 7 6 6 7 6 6 6 6 6 6 6 5 4 4 4 5 5 6 6 6 6 6 6 5
4 3 0 0 4 5 3 5 6 4 4 7 3 7 5 4 8 8 10 9 7 7 7 7 7 9 7 8 7 6 6 6 4 5 6 5 5 6 6 6 7 6 6 6
3 6 4 4 3 5 7 10 9 5 5 7 7 9 7 5 9 13 9 9 9 8 7 8 8 9 8 8 6 7 5 5 5 5 6 6 6 7 6 6 6 6 6 5
5 5 3 3 4 2 7 2 4 5 4 6 3 5 10 5 3 6 6 9 9 7 7 7 6 7 6 3 3 4 5 6 6 6 6 6 6 7 6 6 6 6 4 5
4 5 4 5 4 6 5 5 8 9 8 9 7 4 5 5 5 5 8 7 8 8 8 6 4 3 1 3 3 4 6 5 6 7 6 6 6 6 6 7 7 6 4 1
5 6 6 3 4 7 8 3 4 3 6 9 8 8 9 7 3 10 10 9 9 7 3 4 4 3 3 1 1 2 5 6 7 7 7 6 5 6 6 6 6 3 2 3
3 4 5 2 3 10 8 2 2 6 10 6 10 9 10 7 7 2 4 5 4 5 7 6 6 4 1 3 3 5 6 7 7 7 6 6 5 6 6 6 3 3 3 5
8 7 4 4 2 9 6 3 8 8 2 6 8 9 14 6 7 5 7 8 8 9 7 5 5 3 2 1 1 4 6 6 6 6 6 7 6 4 4 5 4 1 4 5
3 7 6 10 8 5 6 4 3 2 3 5 7 7 11 9 7 8 7 10 8 7 6 4 4 0 3 3 2 4 5 6 7 6 7 7 6 4 3 4 3 2 3 3
5 4 3 2 4 8 8 6 6 6 7 4 6 7 10 7 7 6 7 6 6 4 4 3 1 2 4 5 5 5 6 6 6 6 6 6 4 4 3 2 3 3 2 2
5 5 4 5 9 6 9 8 9 5 5 5 4 6 8 9 7 12 10 8 5 5 3 2 0 2 5 5 5 6 6 5 5 5 5 6 4 4 3 3 3 3 4 5
6 8 6 8 10 5 7 5 2 6 8 6 7 6 4 7 11 9 8 5 5 5 3 1 2 4 5 5 6 6 5 4 5 5 6 4 6 5 3 3 3 6 8 7
Wind_Direction
8 69 111 203 190 165 170 123 157 354 61 75 64 60 18 26 48 65 66 82 84 69 30 55 53 55 75 61 80 80 95 97 122 126 131 90 77 10 27 50 37 39 34 39
32 81 213 172 103 101 85 102 84 131 22 90 97 57 28 31 38 64 108 97 100 95 59 52 65 76 86 107 120 123 131 146 154 145 166 143 163 168 94 73 45 36 37 31
118 136 53 82 49 77 60 125 200 136 98 92 86 41 21 10 39 39 34 77 82 101 107 89 79 93 105 101 111 103 109 123 120 122 124 100 73 68 59 29 23 14 30 32
97 8 135 68 68 92 79 101 101 140 91 150 41 189 73 336 38 4 316 74 108 116 91 107 92 74 89 86 68 90 108 113 106 94 77 95 103 103 135 143 62 61 61 65
259 63 73 63 71 79 110 98 134 105 82 100 11 89 259 135 232 214 214 222 199 133 172 123 83 60 43 58 79 85 70 55 49 50 52 68 73 73 94 130 133 184 238 271
50 26 49 104 62 53 134 86 50 54 79 43 216 125 241 195 192 186 199 223 202 178 159 89 96 74 20 34 46 47 55 28 39 63 68 85 105 126 126 266 289 323 312 254
10 346 331 35 87 40 68 62 10 8 11 220 348 111 232 207 184 183 186 205 173 123 107 74 78 94 84 63 53 63 70 54 44 50 53 76 125 163 223 314 327 315 320 317
123 339 7 345 104 159 93 143 153 199 188 227 20 239 254 224 185 176 190 113 132 141 126 130 133 99 87 75 68 71 70 67 51 51 42 31 17 358 327 320 313 308 286 282
140 292 324 38 54 118 171 57 160 109 357 73 253 288 322 83 144 158 170 135 149 142 143 143 122 97 94 84 77 83 72 56 45 44 48 41 29 13 338 325 313 285 275 234
190 104 42 319 79 41 130 143 63 6 133 280 294 275 234 191 196 180 166 161 160 160 148 140 115 102 93 92 95 93 96 90 67 52 42 34 13 2 340 319 308 304 308 274
117 98 282 27 26 166 21 48 57 106 104 156 248 262 223 209 198 177 180 167 163 158 150 135 102 82 89 91 94 97 71 65 57 53 40 26 352 336 333 328 314 304 268 184
51 122 125 179 275 256 152 130 122 111 205 67 143 273 349 259 194 151 167 149 131 140 146 126 119 113 96 103 90 84 100 107 124 90 35 313 314 329 327 311 295 273 218 175
179 15 60 354 355 344 161 110 96 104 87 196 127 263 11 67 94 120 141 136 140 145 135 129 133 133 134 113 109 154 189 186 180 206 241 271 302 314 306 302 305 281 262 300
90 91 152 181 198 194 171 152 136 117 115 188 228 259 216 176 153 141 138 145 151 161 171 167 159 155 145 165 185 211 223 223 224 225 244 278 299 298 301 312 308 292 286 290
84 121 88 65 17 334 264 187 175 186 183 172 243 211 233 202 188 171 157 154 167 186 192 186 173 174 194 197 216 230 243 243 238 253 271 280 292 309 314 305 301 301 288 284
10 158 22 149 3 5 285 258 215 210 203 258 274 275 203 142 116 157 173 176 187 196 203 184 184 196 201 209 219 233 247 257 247 264 280 290 317 305 298 313 314 304 305 308
74 131 93 263 359 340 338 222 199 196 188 160 195 235 156 177 185 183 182 189 197 201 194 183 197 205 208 215 216 241 263 283 274 273 286 289 297 296 305 304 299 296 291 288
123 91 72 188 25 5 239 300 224 207 216 205 228 208 194 187 127 170 197 191 203 205 199 205 214 218 223 226 234 278 291 281 272 276 278 286 290 292 293 287 290 289 282 305
60 109 93 138 191 292 306 199 170 175 258 191 202 174 150 92 65 281 207 197 198 202 208 213 218 173 192 219 267 285 293 283 276 276 284 274 279 296 302 297 293 288 273 254
59 71 108 89 140 217 239 247 174 117 290 191 163 174 157 129 150 242 185 181 201 198 168 160 136 117 132 172 295 325 311 304 284 280 277 275 285 294 292 286 290 282 265 189
30 12 151 126 237 290 241 193 167 100 243 162 176 178 155 189 196 183 150 129 140 124 122 111 107 122 100 86 31 317 304 293 288 291 289 285 289 291 283 293 274 257 177 139
169 150 200 104 66 281 167 75 160 216 254 183 190 186 193 180 148 136 120 119 125 129 122 114 102 81 132 300 313 312 303 295 308 309 300 287 281 278 293 297 298 210 147 140
236 188 182 181 215 232 239 234 264 177 197 212 194 194 195 168 178 167 153 150 141 135 120 109 107 19 300 307 304 293 284 305 309 308 302 302 282 272 297 293 239 154 154 158
250 159 197 74 259 238 237 258 232 212 228 213 224 193 171 175 150 113 105 112 105 132 130 131 120 310 306 307 293 262 298 312 312 299 311 310 296 291 322 282 212 183 181 206
202 147 184 264 279 283 264 235 250 244 219 220 200 186 169 130 134 141 141 131 156 148 155 148 318 298 287 296 294 306 310 313 298 296 310 318 289 268 296 232 205 200 217 198
191 191 163 227 235 193 247 273 186 210 225 198 163 127 100 124 133 124 114 127 166 177 166 213 277 275 283 302 305 302 297 304 298 284 303 290 298 268 236 222 248 241 232 238